TimeEST,TemperatureF,Dew PointF,Humidity,Sea Level PressureIn,VisibilityMPH,Wind Direction,Wind SpeedMPH,Gust SpeedMPH,PrecipitationIn,Events,Conditions,WindDirDegrees,DateUTC
12:54 AM,33.1,28.0,82,29.68,10.0,WSW,4.6,-,N/A,,Scattered Clouds,250,2013-03-01 05:54:00
1:54 AM,36.0,30.0,79,29.69,10.0,West,5.8,-,N/A,,Overcast,260,2013-03-01 06:54:00
3:54 AM,37.9,30.0,73,29.71,10.0,WNW,8.1,-,N/A,,Overcast,300,2013-03-01 08:54:00
5:54 AM,37.9,28.9,70,29.73,10.0,WNW,5.8,-,N/A,,Overcast,290,2013-03-01 10:54:00
6:54 AM,37.9,28.9,70,29.74,10.0,WNW,6.9,-,N/A,,Overcast,300,2013-03-01 11:54:00
7:54 AM,39.0,30.0,70,29.76,10.0,WNW,5.8,-,N/A,,Mostly Cloudy,300,2013-03-01 12:54:00
8:54 AM,41.0,28.9,62,29.77,10.0,NW,11.5,-,N/A,,Mostly Cloudy,320,2013-03-01 13:54:00
10:54 AM,41.0,28.9,62,29.78,10.0,NNW,10.4,-,N/A,,Overcast,330,2013-03-01 15:54:00
11:54 AM,42.1,28.9,60,29.78,10.0,NW,12.7,-,N/A,,Overcast,320,2013-03-01 16:54:00
12:54 PM,43.0,27.0,53,29.77,10.0,NNW,15.0,-,N/A,,Overcast,330,2013-03-01 17:54:00
2:54 PM,43.0,27.0,53,29.77,10.0,WNW,12.7,19.6,N/A,,Overcast,300,2013-03-01 19:54:00
3:54 PM,43.0,26.1,51,29.78,10.0,NNW,15.0,-,N/A,,Overcast,330,2013-03-01 20:54:00
4:54 PM,42.1,25.0,51,29.79,10.0,NNW,13.8,-,N/A,,Overcast,330,2013-03-01 21:54:00
5:54 PM,39.9,25.0,55,29.81,10.0,NW,11.5,-,N/A,,Overcast,320,2013-03-01 22:54:00
6:54 PM,39.9,25.0,55,29.82,10.0,NNW,11.5,-,N/A,,Overcast,330,2013-03-01 23:54:00
7:54 PM,39.0,25.0,57,29.83,10.0,NNW,8.1,-,N/A,,Overcast,330,2013-03-02 00:54:00
8:54 PM,37.9,24.1,57,29.84,10.0,NNW,13.8,-,N/A,,Overcast,340,2013-03-02 01:54:00
9:54 PM,36.0,23.0,59,29.85,10.0,NNW,8.1,-,N/A,,Scattered Clouds,330,2013-03-02 02:54:00
10:54 PM,33.1,21.9,64,29.86,10.0,NNW,9.2,-,N/A,,Clear,330,2013-03-02 03:54:00
11:54 PM,33.1,23.0,66,29.85,10.0,NNW,6.9,-,N/A,,Overcast,330,2013-03-02 04:54:00